Simultaneous Nadir Overpasses (SNOs) Predictions

Prediction of SNOs between GOES-15 and TERRA Satellite Orbit:

Table of predicted SNOs for the next 14.0 days since TLE Epoch: 1/3/2016
Index Date Time (GOES-15) GOES-15 Lat,Lon TERRA Lat,Lon Distance(km) Time Diff (sec)
1 01/03/2016 07:43:23 0.01,-134.45 -0.68,-137.80 380.41 80
2 01/05/2016 07:31:12 0.01,-134.35 -0.08,-134.84 56.10 80
3 01/07/2016 07:16:21 0.02,-134.24 0.54,-131.89 267.54 80
4 01/07/2016 19:37:36 -0.01,-134.22 0.61,-137.03 320.30 80
5 01/09/2016 19:28:05 -0.01,-134.10 -0.01,-134.08 2.67 80
6 01/11/2016 19:15:53 -0.01,-133.98 -0.59,-131.11 325.14 80
7 01/12/2016 07:37:16 -0.01,-133.94 -0.52,-136.30 269.56 80
8 01/14/2016 07:22:25 -0.01,-133.80 0.07,-133.34 52.24 80
9 01/16/2016 07:10:13
